Zurück zum Katalog

DELTA 1 DEB

AktivSSO
NORAD 12537·DEBRIS·🇺🇸 United States

Gestartet Jul 29, 1976 von Vandenberg Space Force Base

Loading…

Nächste Überflüge (nächste 24 Stunden)

TLE

AktuellSource: Space-Track

Epoche: Sep 14, 2026, 11:44 UTC

1 12537U 76077DS  26257.48956817 -.00000037  00000-0  52193-4 0  9990
2 12537 102.3232 216.5521 0161204 120.0574 319.4185 12.11634860 47642

Verfolge DELTA 1 DEB in Echtzeit mit AllMySat

Download on the App Store